Theta_e
294 293 294 296 297 299 301 300 301 309 317 327 330 334 336 339 339 336 334 332 330 329 328 327 327 326 325 326 326 326 326 326 325 326 328 328 328 327 328 328 327 327 327
295 293 294 294 295 295 296 297 298 299 302 310 319 321 323 321 333 337 335 332 330 329 327 325 325 325 324 325 327 326 326 326 325 324 327 328 327 328 328 328 327 327 327
294 295 294 294 294 294 294 295 296 297 298 299 303 307 314 311 318 322 334 332 330 329 327 326 325 323 323 324 326 327 327 326 325 324 324 325 328 328 327 327 328 328 327
294 295 296 294 294 294 294 294 294 294 295 298 297 298 299 303 309 311 311 330 331 329 328 327 327 326 324 324 325 326 327 327 326 325 324 323 327 328 328 327 327 327 327
294 295 294 295 294 294 294 294 294 294 294 294 296 296 296 296 299 301 309 313 325 331 329 328 327 327 327 326 326 326 327 326 326 325 325 324 325 329 328 328 327 327 327
293 294 294 294 294 294 295 294 294 294 293 294 294 294 295 295 297 299 300 302 312 314 322 330 329 328 327 327 327 327 327 327 327 326 325 325 324 326 329 328 327 326 324
293 294 294 293 294 293 294 294 294 294 294 294 294 294 294 294 295 298 299 299 301 308 310 311 330 330 330 329 328 328 328 328 328 328 327 326 326 325 326 327 328 327 327
294 294 293 293 293 293 293 293 293 293 294 294 294 294 294 294 295 295 297 298 298 299 301 303 303 317 322 329 328 329 327 328 328 328 328 327 326 326 326 326 326 327 327
293 294 293 293 294 292 292 293 292 292 293 293 294 294 295 295 294 294 295 295 295 296 299 299 298 299 306 321 327 327 325 325 327 328 328 327 327 327 326 326 326 325 320
293 294 294 293 293 291 292 291 292 292 292 292 292 293 293 293 294 293 293 294 293 295 295 298 299 298 297 305 314 318 322 323 323 325 327 326 327 327 326 326 324 324 321
292 292 293 293 292 291 291 291 290 291 290 291 290 291 292 291 292 293 292 292 292 293 293 293 295 297 297 298 304 304 306 309 316 321 325 324 322 324 325 325 325 325 321
290 290 292 292 291 290 290 290 290 290 289 289 289 289 289 289 290 292 291 291 291 291 291 292 293 294 292 298 298 301 305 306 307 312 317 318 318 320 323 324 324 324 323
289 290 291 290 289 289 289 289 289 289 290 289 289 288 288 288 289 289 289 289 289 289 290 290 291 293 293 293 297 298 299 301 303 304 309 311 313 314 317 318 319 319 318
289 289 289 288 288 288 289 289 289 289 289 289 289 289 289 289 289 289 289 289 289 289 289 289 290 290 292 293 293 298 296 296 298 300 302 304 305 307 309 311 313 314 314
289 287 287 286 286 287 288 289 289 289 289 289 289 289 289 289 289 289 289 290 290 289 289 289 289 289 290 291 292 293 294 296 295 297 299 300 300 301 303 306 307 308 308
287 286 286 286 286 287 287 288 288 288 288 288 288 289 289 289 289 289 289 289 290 290 289 289 289 289 289 289 290 291 292 293 294 294 296 297 299 300 300 302 303 304 305
286 287 287 287 287 287 287 288 289 288 288 288 288 289 290 290 289 289 289 289 289 290 290 289 289 289 289 290 290 290 291 291 292 293 294 296 298 299 299 299 300 301 301
286 286 287 287 287 287 287 288 288 288 288 288 288 289 289 289 289 289 289 289 289 289 290 290 290 290 290 290 290 291 291 292 292 293 294 296 297 298 298 298 299 299 299
286 286 286 286 287 287 287 288 288 288 288 288 289 289 289 288 288 288 288 289 289 289 289 290 290 290 290 291 291 291 291 291 291 292 293 295 296 298 297 297 298 300 299
285 285 286 286 286 287 287 287 287 288 288 288 288 288 288 287 288 288 288 288 289 289 289 290 290 290 291 292 291 291 291 291 291 291 291 291 292 295 296 296 296 296 296
285 286 286 286 286 286 286 286 287 287 287 287 287 287 286 286 287 288 288 288 288 288 288 289 289 290 290 290 291 291 291 291 292 292 292 291 291 292 293 295 295 295 296
286 286 286 286 286 286 285 286 286 286 286 286 286 286 286 286 286 287 287 287 287 287 287 288 288 289 289 289 290 290 291 291 292 292 292 291 291 291 292 292 293 294 294
285 285 285 285 285 284 284 285 285 285 285 285 286 286 286 286 286 285 286 286 286 287 286 286 287 287 288 288 289 289 290 290 291 291 292 292 292 291 291 291 292 292 293
285 285 284 284 284 283 284 284 284 285 285 285 285 285 285 285 285 285 286 286 286 286 286 286 286 286 286 287 288 288 289 289 290 291 291 292 291 291 291 291 292 292 292
284 284 284 283 284 283 283 283 283 283 283 284 284 284 284 284 284 285 285 285 286 285 286 285 285 285 285 286 287 287 288 289 289 290 290 291 291 291 291 291 291 291 291
283 283 283 283 283 283 283 283 283 282 282 283 282 283 283 283 283 284 284 284 285 285 286 285 285 285 285 285 285 285 287 288 289 289 290 290 291 291 291 291 291 291 291
Wind_Speed
40 44 43 38 37 29 44 34 33 24 17 9 25 32 41 48 49 48 47 47 45 44 42 41 42 43 38 37 38 33 34 32 13 19 35 40 32 36 41 45 46 46 45
37 42 28 42 35 39 38 33 44 36 35 19 13 8 10 18 35 52 46 45 48 45 45 39 42 42 39 35 32 33 33 32 25 19 26 34 38 38 40 41 44 46 46
32 28 40 35 42 41 38 42 42 41 43 44 33 20 13 19 17 12 46 42 44 44 44 45 47 41 39 39 34 33 32 32 35 25 22 20 32 38 37 38 37 41 45
34 34 29 38 39 30 26 32 38 34 37 41 38 33 31 17 3 19 15 28 43 45 46 47 47 46 44 41 40 38 35 32 33 31 28 30 27 30 36 34 33 37 40
32 32 32 32 33 35 36 36 42 39 35 35 35 31 30 38 30 32 20 14 8 36 42 47 48 48 52 49 41 39 36 34 29 30 26 26 25 19 29 32 30 34 36
28 30 32 33 29 30 27 30 35 35 33 34 35 33 33 33 30 29 26 21 8 6 8 41 43 50 50 51 49 45 40 35 32 29 30 25 29 31 32 32 29 18 9
30 27 31 32 28 30 31 35 34 31 31 31 32 29 28 29 31 31 31 32 25 11 19 24 32 42 52 51 52 52 49 49 47 40 35 35 35 36 35 29 31 31 27
30 31 29 31 28 28 31 31 29 27 27 27 26 26 26 26 26 29 30 28 28 30 31 25 23 8 24 45 48 51 48 49 52 52 43 42 40 40 46 45 43 35 31
31 29 27 29 27 30 30 28 30 31 29 29 27 25 24 24 22 25 27 27 26 26 28 25 25 25 17 17 31 38 38 36 43 50 50 45 39 43 45 39 31 28 12
29 29 26 25 25 26 28 28 25 29 29 26 26 24 26 25 24 26 23 22 23 26 25 23 24 27 28 18 7 11 22 26 33 37 42 39 33 33 39 44 35 31 17
29 30 28 20 26 28 26 25 29 26 26 26 27 25 23 27 25 23 21 18 19 18 18 20 20 21 21 19 14 9 7 3 17 30 36 33 40 35 37 41 41 38 26
30 30 29 26 27 29 28 28 26 26 23 21 21 20 21 24 24 20 19 19 20 20 16 14 15 19 24 18 15 11 8 6 5 7 20 26 30 34 37 40 41 40 39
28 29 26 28 31 29 27 29 25 25 21 23 23 21 20 21 19 21 23 24 21 20 18 18 18 17 20 19 13 9 9 8 8 11 5 7 11 19 25 27 31 33 30
24 27 27 26 27 25 24 26 24 24 22 20 22 22 23 23 23 26 27 26 24 20 17 18 19 19 15 19 20 10 9 9 8 9 10 7 3 8 9 14 20 23 25
22 23 21 22 23 24 24 24 20 23 24 24 23 24 24 22 23 25 25 26 24 21 18 18 18 17 18 16 18 18 12 11 15 10 9 10 4 9 10 11 12 14 13
21 21 22 22 23 22 22 23 21 22 23 22 23 24 25 27 26 24 23 22 21 17 16 14 13 13 16 16 18 19 17 17 16 16 14 11 11 7 11 12 14 16 18
19 20 21 22 22 22 22 21 23 26 22 22 23 24 26 27 26 25 23 22 19 14 13 15 15 16 20 21 19 18 18 20 18 16 17 17 12 13 10 13 17 17 17
24 23 22 22 23 23 23 22 21 19 22 26 28 27 26 27 28 26 22 21 18 15 15 16 16 15 16 18 19 19 18 17 17 16 17 19 18 15 16 17 19 20 19
24 23 24 24 23 24 23 22 22 21 21 22 25 23 26 28 25 23 22 19 16 15 16 16 17 17 17 15 15 17 18 18 17 16 16 19 21 21 21 22 23 24 23
22 21 22 23 21 21 20 20 20 20 21 21 22 24 28 29 23 23 22 20 18 17 18 18 19 19 20 18 19 16 17 18 19 19 22 22 24 21 23 23 23 20 22
21 24 24 24 23 22 20 20 20 20 20 21 22 22 25 25 22 22 22 22 20 19 20 20 20 20 20 20 19 21 21 22 22 21 20 21 21 24 23 23 22 23 22
21 20 20 21 23 21 22 21 20 20 21 22 23 23 26 23 22 22 22 22 23 22 21 21 22 22 22 21 21 20 21 21 22 24 23 20 20 22 23 23 21 21 21
20 23 23 22 21 23 21 23 21 21 20 22 22 23 24 25 24 22 24 25 25 24 22 20 20 22 22 21 21 21 22 23 23 24 24 24 23 21 23 21 21 20 19
22 23 23 22 23 24 22 21 20 21 21 22 23 23 23 24 25 24 27 26 24 24 24 23 21 21 22 22 21 22 22 23 21 21 22 24 22 22 23 23 21 22 22
22 22 24 23 22 22 21 21 21 22 23 23 24 23 23 23 24 25 27 27 25 25 24 24 23 22 21 21 20 20 21 22 22 21 21 22 23 23 23 23 22 22 23
20 22 21 24 22 23 22 21 20 22 22 22 23 23 24 24 26 27 28 28 27 25 26 28 29 26 22 18 16 16 16 17 19 20 21 22 23 23 23 23 23 22 22
Wind_Direction
9 17 21 25 29 30 54 11 27 37 16 258 208 201 203 217 199 195 194 194 194 197 201 204 207 210 213 216 221 221 223 220 219 215 218 219 221 224 227 232 236 235 238
7 19 4 34 26 28 37 25 34 34 41 6 41 340 293 301 231 197 198 196 194 197 201 202 208 210 214 215 213 215 214 215 213 217 206 214 216 223 228 226 230 233 238
4 7 17 19 30 23 26 38 39 27 39 38 44 33 11 9 319 261 198 197 194 200 203 206 210 215 218 219 215 218 215 216 222 225 225 222 222 222 220 224 227 232 236
6 13 16 24 27 25 14 35 39 36 38 51 39 38 43 49 342 343 333 205 198 200 207 211 213 212 216 218 218 218 214 211 213 217 225 221 216 221 221 213 220 226 230
7 9 12 24 20 22 15 26 34 32 33 41 48 41 36 39 33 18 346 303 208 200 211 211 213 214 215 217 216 220 214 208 209 213 219 216 212 199 199 213 217 220 224
4 12 11 19 21 20 8 24 26 22 22 30 36 36 31 26 23 30 32 12 10 308 248 214 217 213 214 213 215 217 216 211 211 211 213 213 213 210 203 206 207 196 209
5 8 14 12 15 15 13 19 19 15 16 14 21 25 29 22 15 23 29 29 23 21 47 4 221 217 213 216 217 219 220 219 219 214 215 217 219 216 214 207 207 208 217
5 4 10 11 9 10 18 16 12 10 16 10 15 18 19 18 13 18 26 30 23 32 47 33 20 194 208 211 211 215 218 218 220 222 221 225 223 221 216 219 219 217 225
7 2 7 10 7 7 9 9 6 7 5 14 14 15 17 16 16 13 18 20 18 23 38 35 26 11 22 208 207 205 214 219 224 224 229 229 231 228 225 216 214 203 193
8 359 1 11 11 9 5 3 4 9 6 11 13 13 17 14 8 13 11 16 16 18 18 19 15 13 2 36 143 196 205 219 224 224 233 239 230 230 221 219 213 210 196
1 359 355 10 10 5 2 4 6 8 2 3 11 14 13 8 8 11 17 14 20 24 23 9 15 8 356 7 49 43 88 216 224 226 233 241 236 222 221 224 222 221 212
356 355 351 8 8 1 359 0 5 0 358 357 359 4 8 5 2 0 2 1 6 9 15 1 355 354 341 358 359 38 8 5 327 233 220 223 224 221 221 224 225 228 228
354 350 354 359 357 359 356 355 355 355 352 353 351 351 351 353 353 346 344 347 353 340 334 329 331 315 323 327 329 357 3 344 324 303 253 233 228 243 235 234 233 226 224
351 349 352 352 349 346 349 352 352 349 345 346 344 340 338 340 343 347 342 344 340 334 328 319 318 313 304 304 313 294 319 331 309 281 300 295 278 268 245 226 225 225 223
352 348 352 349 346 343 340 340 345 349 347 335 333 333 327 330 338 344 339 336 333 325 319 319 319 320 313 302 292 288 282 277 288 293 282 290 297 296 283 249 233 218 209
352 349 347 343 341 338 335 331 342 346 349 348 343 339 336 334 339 341 340 333 329 322 308 304 293 286 285 290 292 298 295 281 268 288 294 284 284 281 280 270 251 236 223
355 343 343 341 336 332 332 332 330 337 340 346 348 344 345 338 339 335 332 332 328 315 291 291 283 290 290 292 292 293 291 292 289 278 279 279 276 289 274 268 255 238 235
351 348 344 336 334 330 328 327 325 324 328 334 347 345 342 341 340 337 335 331 331 325 291 284 289 292 291 290 290 287 289 296 293 289 282 275 273 267 269 251 249 244 232
348 343 340 339 332 330 330 326 324 323 327 327 331 337 342 342 337 339 342 334 323 313 303 294 296 294 290 287 282 280 281 279 279 285 285 285 268 256 245 246 246 241 237
344 342 346 340 332 333 331 331 332 334 333 333 340 337 342 343 343 338 334 331 322 313 313 301 300 301 299 292 288 280 279 273 267 264 266 269 271 263 241 246 245 236 227
345 339 339 339 342 336 334 334 335 338 335 337 341 344 345 343 334 334 330 330 324 325 317 313 307 303 302 298 292 279 273 277 272 265 263 263 260 259 256 257 255 253 241
350 341 340 339 339 340 339 342 340 345 341 340 343 349 352 348 344 335 335 334 332 333 328 319 312 305 299 294 291 285 278 273 272 262 257 259 257 262 256 247 248 239 234
358 357 353 350 349 348 347 348 346 344 346 346 347 348 352 348 345 346 344 342 342 337 338 332 321 318 313 304 295 287 277 269 267 268 263 262 257 255 250 240 238 230 223
7 7 2 355 356 353 348 346 348 350 350 349 350 353 352 349 345 348 351 349 351 348 347 341 332 324 321 315 304 295 287 280 274 268 262 252 253 250 240 237 232 228 223
9 7 5 357 354 354 352 354 356 354 352 352 349 350 350 350 349 350 354 350 348 352 352 351 346 343 334 321 311 299 288 281 271 264 263 261 256 253 246 237 233 226 221
5 9 3 1 356 354 352 351 354 359 355 351 352 351 351 351 350 353 355 354 353 352 353 354 355 356 353 347 335 315 298 282 269 259 253 256 256 250 243 239 234 223 215